[[{"header":{"parameterUnit":"m.s-1","parameterCategory":1,"la1":30.2991,"la2":30.254,"lo1":-89.0895,"lo2":-89.0444,"dy":0.0017,"dx":0.0017,"nx":28,"ny":28,"refTime":"2023-10-21T09:00:00:Z","depth":0,"parameterNumber":2,"parameterNumberName":"U-component_of_WINDS"},"data":[0,0,0,0,0,0,0,0,0,0,0,0,0,0,0,0,0,0,0,0,0,0,0,0,0,0,0,0,0,0,0,0,0,0,0,0,0,0,0,0,0,0,0,0,0,0,0,0,0,0,0,0,0,0,0,0,0,0,0.5126,0.5127,0,0.5221,0.5222,0.5223,0.5244,0.5243,0.5242,0.5242,0.534,0.5344,0.5347,0,0,0,0,0,0,0,0,0,0,0,0,0,0.4963,0.4966,0.5126,0.5127,0.5128,0.5221,0.5222,0.5223,0.5244,0.5243,0.5242,0.5241,0.5339,0.5343,0.5347,0,0,0,0,0,0,0,0,0,0,0,0,0,0.5043,0.4967,0.5126,0.5149,0.5153,0.522,0.5222,0.5224,0.5244,0.5243,0.5242,0.5241,0.5338,0.5343,0.5348,0.5399,0,0,0.5363,0.5365,0,0,0,0,0,0,0,0,0.5039,0.5049,0.5145,0.5148,0.5151,0.5219,0.5201,0.5282,0.5244,0.5209,0.5242,0.524,0.5301,0.5309,0.5329,0.5403,0.5408,0.5363,0.5366,0.5368,0.537,0,0,0,0,0,0,0,0.5033,0.5045,0.5163,0.5146,0.515,0.5156,0.5166,0.5216,0.526,0.5212,0.5214,0.5225,0.5303,0.5324,0.5332,0.5409,0.5363,0.5367,0.537,0.5372,0.553,0.5531,0,0,0,0,0,0,0.5023,0.504,0.516,0.5166,0.5091,0.5159,0.5171,0.5199,0.5259,0.5268,0.5226,0.5225,0.5316,0.5326,0.5335,0.5399,0.5368,0.5373,0.5376,0.5529,0.553,0.5532,0,0,0,0,0,0,0.502,0.5034,0.5157,0.5104,0.512,0.5163,0.5194,0.5201,0.5223,0.5269,0.5277,0.524,0.5316,0.5328,0.5383,0.5402,0.5375,0.5379,0.5527,0.5529,0.5531,0.5526,0,0,0,0,0,0,0.5015,0.5032,0.5052,0.5104,0.5123,0.5202,0.5195,0.5204,0.5231,0.5232,0.5285,0.5293,0.5316,0.5375,0.5387,0.5409,0.5383,0.5526,0.5528,0.553,0.5525,0.5528,0.553,0,0,0,0,0,0.5009,0.5047,0.5053,0.5067,0.5148,0.5203,0.5214,0.524,0.5232,0.5253,0.5283,0.5291,0.5398,0.5381,0.5395,0.5418,0.5525,0.5527,0.553,0.5524,0.5527,0.553,0,0,0,0,0,0,0.4997,0.5055,0.5061,0.5118,0.5155,0.5207,0.5233,0.5243,0.5284,0.5282,0.5313,0.5325,0.5378,0.5403,0.5382,0.547,0.5461,0.5467,0.5451,0.5455,0.5458,0.545,0.5387,0,0,0,0,0,0.5,0.504,0.5089,0.5134,0.5152,0.5189,0.5214,0.5231,0.5271,0.5287,0.5321,0.5361,0.5403,0.5431,0.5473,0.5529,0.5541,0.5552,0.5554,0.5556,0.5561,0.5592,0.5597,0.5541,0.5541,0.5541,0,0,0.5009,0.5045,0.5069,0.5132,0.5163,0.5204,0.5203,0.5246,0.5276,0.5294,0.5347,0.5374,0.542,0.5475,0.5501,0.5498,0.5579,0.556,0.5561,0.5565,0.5595,0.5601,0.5605,0.5543,0.5542,0.5542,0,0,0.5045,0.5076,0.5117,0.5148,0.5195,0.5219,0.5229,0.5279,0.5297,0.5351,0.5365,0.5402,0.5475,0.5507,0.5532,0.558,0.5589,0.5593,0.5607,0.5637,0.5641,0.5646,0.5662,0.5668,0.5597,0.5597,0.5597,0,0.5049,0.5111,0.5137,0.5179,0.5207,0.5224,0.5266,0.5295,0.5353,0.5372,0.5367,0.5459,0.5491,0.5554,0.5565,0.5586,0.5598,0.5587,0.5639,0.5643,0.5647,0.5663,0.567,0.5597,0.5597,0.5597,0.5597,0,0.5114,0.5156,0.5183,0.5238,0.5269,0.5311,0.5344,0.5371,0.5385,0.541,0.5465,0.5504,0.5554,0.557,0.5584,0.5635,0.5631,0.5632,0.5624,0.5652,0.5668,0.5674,0.5598,0.5597,0.5597,0.5597,0,0,0.5144,0.5213,0.5223,0.5248,0.5301,0.5334,0.5377,0.5425,0.5448,0.5488,0.5524,0.5585,0.5586,0.5615,0.5633,0.566,0.5695,0.5658,0.5659,0.5663,0.5753,0.5751,0.5758,0.5701,0.5702,0.5703,0.5749,0,0.5186,0.5262,0.5287,0.535,0.539,0.5407,0.5444,0.548,0.5505,0.5542,0.5569,0.5612,0.561,0.5628,0.5655,0.5684,0.5713,0.5682,0.5735,0.5737,0.5723,0.5766,0.5765,0.5806,0.5755,0.5756,0.5757,0,0.5245,0.5285,0.5352,0.54,0.5417,0.545,0.5496,0.5531,0.5573,0.5589,0.5621,0.5637,0.5682,0.5671,0.5734,0.5712,0.5736,0.5754,0.5756,0.5762,0.5748,0.5773,0.582,0.5825,0.5767,0.5766,0.5765,0,0.526,0.5331,0.538,0.5401,0.5458,0.548,0.5505,0.5546,0.5573,0.5614,0.5632,0.5677,0.5702,0.5737,0.5765,0.5754,0.5825,0.5816,0.5839,0.5839,0.5853,0.5852,0.5904,0.5869,0.5869,0.5869,0.5868,0,0.5304,0.5344,0.5387,0.5417,0.5463,0.5491,0.5536,0.5562,0.5598,0.5633,0.5652,0.5685,0.572,0.5757,0.5779,0.5828,0.5839,0.5853,0.5859,0.5852,0.585,0.5867,0.5865,0.587,0.587,0.5869,0.5869,0,0.5328,0.5359,0.5413,0.5463,0.5476,0.5507,0.555,0.558,0.5605,0.565,0.5662,0.5701,0.5747,0.5778,0.5836,0.5851,0.5904,0.5909,0.5889,0.5892,0.5913,0.591,0.5978,0.5988,0.5946,0.5946,0.5947,0,0.5354,0.5385,0.5438,0.5463,0.5488,0.5528,0.5555,0.5585,0.5613,0.5663,0.5687,0.5733,0.5772,0.5844,0.5878,0.5923,0.5929,0.5949,0.5936,0.5927,0.5929,0.5926,0.5929,0.5951,0.5952,0.5952,0.5952,0,0.5396,0.541,0.5449,0.5494,0.5526,0.5563,0.5599,0.5619,0.5654,0.5685,0.5731,0.5761,0.5821,0.5867,0.5915,0.5941,0.5952,0.5956,0.5964,0.5957,0.5944,0.5951,0.5894,0.5954,0.5954,0.5954,0.5954,0.5954,0.5422,0.5451,0.5492,0.5535,0.5565,0.5599,0.563,0.5658,0.5697,0.5747,0.5762,0.581,0.5852,0.5917,0.5944,0.5982,0.5981,0.5992,0.5995,0.5997,0.5996,0.5938,0.5991,0.5991,0.5991,0.5991,0.5991,0,0.5465,0.5492,0.5531,0.5582,0.5616,0.5623,0.5664,0.5692,0.5734,0.5771,0.5809,0.5862,0.5907,0.5944,0.599,0.6014,0.602,0.6025,0.6023,0.6029,0.5995,0.5984,0.6019,0.6019,0.6019,0.6019,0.6019,0.6019,0.5491,0.5539,0.5558,0.5621,0.5649,0.5696,0.5718,0.575,0.5779,0.5838,0.5875,0.5899,0.5936,0.5985,0.6026,0.6036,0.6052,0.6056,0.6067,0.6035,0.6031,0.6028,0.6018,0.6059,0.6059,0.6097,0.6098,0.6098]},{"header":{"parameterUnit":"m.s-1","parameterCategory":1,"la1":30.2991,"la2":30.254,"lo1":-89.0895,"lo2":-89.0444,"dy":0.0017,"dx":0.0017,"nx":28,"ny":28,"refTime":"2023-10-21T09:00:00:Z","depth":0,"parameterNumber":3,"parameterNumberName":"V-component_of_WINDS"},"data":[0,0,0,0,0,0,0,0,0,0,0,0,0,0,0,0,0,0,0,0,0,0,0,0,0,0,0,0,0,0,0,0,0,0,0,0,0,0,0,0,0,0,0,0,0,0,0,0,0,0,0,0,0,0,0,0,0,0,1.8268,1.8268,0,1.8254,1.8253,1.8253,1.822,1.8219,1.8218,1.8218,1.8204,1.8204,1.8204,0,0,0,0,0,0,0,0,0,0,0,0,0,1.8268,1.8269,1.8268,1.8268,1.8268,1.8254,1.8253,1.8253,1.822,1.8219,1.8218,1.8217,1.8204,1.8204,1.8204,0,0,0,0,0,0,0,0,0,0,0,0,0,1.8263,1.8269,1.8268,1.8249,1.8248,1.8254,1.8253,1.8253,1.822,1.8219,1.8218,1.8217,1.8204,1.8204,1.8204,1.8228,0,0,1.8206,1.8206,0,0,0,0,0,0,0,0,1.8263,1.8263,1.8252,1.8251,1.8249,1.8237,1.8248,1.8245,1.822,1.8231,1.8218,1.8216,1.8216,1.8215,1.8215,1.8227,1.8227,1.8206,1.8206,1.8206,1.8206,0,0,0,0,0,0,0,1.8263,1.8263,1.8262,1.8252,1.825,1.8242,1.824,1.8247,1.8229,1.823,1.8227,1.8226,1.8215,1.8215,1.8214,1.8226,1.8206,1.8206,1.8206,1.8207,1.8257,1.8259,0,0,0,0,0,0,1.8266,1.8264,1.8263,1.8262,1.8253,1.8243,1.8241,1.8242,1.8229,1.8226,1.8227,1.8224,1.8214,1.8214,1.8214,1.824,1.8206,1.8207,1.8207,1.8256,1.8258,1.8259,0,0,0,0,0,0,1.8266,1.8267,1.8263,1.8262,1.8261,1.8244,1.8246,1.8242,1.8242,1.8227,1.8224,1.823,1.8213,1.8213,1.8225,1.8239,1.8207,1.8207,1.8255,1.8257,1.8258,1.8294,0,0,0,0,0,0,1.8267,1.8267,1.8275,1.8263,1.8261,1.8274,1.8247,1.8243,1.8243,1.8239,1.8229,1.8226,1.8213,1.8224,1.8225,1.8239,1.8207,1.8254,1.8256,1.8258,1.8291,1.8297,1.8301,0,0,0,0,0,1.8267,1.8286,1.8276,1.8276,1.8271,1.8275,1.8275,1.8258,1.8244,1.8253,1.8243,1.8226,1.8238,1.8226,1.8226,1.8241,1.8253,1.8255,1.8258,1.8289,1.8296,1.8301,0,0,0,0,0,0,1.8301,1.8284,1.8273,1.8288,1.8284,1.827,1.828,1.8266,1.8265,1.8262,1.8242,1.824,1.8254,1.8249,1.8236,1.8263,1.8242,1.8245,1.8266,1.8272,1.8277,1.8278,1.8208,0,0,0,0,0,1.8311,1.8315,1.83,1.8315,1.8313,1.8297,1.8298,1.8286,1.828,1.8278,1.8269,1.8265,1.8267,1.8269,1.8271,1.829,1.8288,1.8301,1.8306,1.831,1.8312,1.8323,1.8328,1.8267,1.8267,1.8267,0,0,1.8331,1.8322,1.8326,1.8322,1.8317,1.8322,1.8296,1.8302,1.8306,1.8279,1.829,1.8283,1.8277,1.8292,1.8299,1.8288,1.8329,1.8313,1.8316,1.8317,1.8326,1.8332,1.8337,1.8269,1.8268,1.8268,0,0,1.8369,1.8363,1.8375,1.837,1.8362,1.8351,1.8355,1.8343,1.8337,1.8347,1.8327,1.8332,1.8336,1.8333,1.8331,1.8369,1.8354,1.837,1.8395,1.8405,1.841,1.8414,1.8428,1.8433,1.8372,1.8372,1.8372,0,1.8395,1.8401,1.8383,1.8391,1.839,1.8366,1.8378,1.8375,1.8368,1.8368,1.8356,1.8361,1.8356,1.837,1.8379,1.8379,1.8382,1.8371,1.8411,1.8415,1.8419,1.8431,1.8436,1.8374,1.8374,1.8374,1.8374,0,1.8433,1.8438,1.8449,1.8443,1.8443,1.8453,1.8437,1.844,1.8427,1.8418,1.8429,1.842,1.842,1.8422,1.8411,1.8435,1.8429,1.8414,1.8393,1.8427,1.8438,1.8443,1.8377,1.8377,1.8376,1.8375,0,0,1.8493,1.8477,1.8481,1.8478,1.8468,1.8472,1.8481,1.848,1.8483,1.8479,1.8487,1.8491,1.8477,1.8476,1.8463,1.8472,1.8503,1.8456,1.8456,1.8466,1.853,1.8541,1.8547,1.8493,1.8493,1.8494,1.8531,0,1.853,1.8544,1.8528,1.8546,1.855,1.8527,1.8535,1.853,1.8522,1.8525,1.8515,1.8519,1.85,1.8499,1.8507,1.8497,1.8515,1.8495,1.85,1.85,1.8502,1.8553,1.8565,1.86,1.8535,1.8536,1.8536,0,1.8574,1.8572,1.859,1.8579,1.858,1.8588,1.8586,1.8589,1.8583,1.8576,1.8574,1.8559,1.8568,1.8547,1.8559,1.8545,1.8546,1.8542,1.8543,1.8543,1.8521,1.8555,1.8611,1.8616,1.8543,1.8543,1.8542,0,1.8616,1.8618,1.863,1.8628,1.8615,1.8621,1.8616,1.8608,1.8609,1.8607,1.8607,1.8607,1.8607,1.8607,1.8593,1.8579,1.8606,1.8584,1.8601,1.8602,1.8608,1.8608,1.8665,1.8609,1.8609,1.8609,1.8608,0,1.8659,1.8671,1.8648,1.8655,1.8669,1.865,1.8664,1.8656,1.865,1.8655,1.8636,1.8641,1.8622,1.8625,1.8614,1.8626,1.8626,1.8621,1.8618,1.8623,1.8624,1.8624,1.8621,1.861,1.861,1.8609,1.8609,0,1.8708,1.8694,1.8705,1.8691,1.8688,1.8699,1.8687,1.8694,1.8684,1.8691,1.8692,1.8676,1.8679,1.8665,1.8666,1.8658,1.8676,1.8669,1.8678,1.8676,1.8694,1.8692,1.8753,1.876,1.8699,1.8699,1.87,0,1.8737,1.8745,1.8733,1.8735,1.8731,1.8735,1.8735,1.8717,1.8718,1.8712,1.8719,1.8721,1.8721,1.8728,1.8717,1.8717,1.871,1.8731,1.871,1.8715,1.8711,1.8711,1.8712,1.8736,1.8737,1.8737,1.8738,0,1.8788,1.8781,1.8782,1.878,1.8781,1.8779,1.8776,1.8779,1.876,1.8763,1.8765,1.8766,1.8766,1.8769,1.8767,1.8762,1.8747,1.8745,1.8749,1.8754,1.8759,1.8757,1.869,1.8743,1.8743,1.8742,1.8742,1.8742,1.8828,1.8835,1.8828,1.883,1.8825,1.8823,1.8828,1.8818,1.882,1.8819,1.8809,1.8814,1.8808,1.8804,1.8801,1.8805,1.8795,1.8801,1.8802,1.8804,1.8807,1.8758,1.8804,1.8804,1.8804,1.8804,1.8804,0,1.8879,1.8873,1.8875,1.8871,1.8873,1.8858,1.8854,1.8856,1.8861,1.8856,1.8857,1.8861,1.8862,1.8852,1.8852,1.8858,1.8851,1.8858,1.8858,1.8857,1.8816,1.8813,1.8864,1.8864,1.8864,1.8864,1.8864,1.8864,1.8906,1.8917,1.8908,1.8917,1.8911,1.8916,1.8915,1.8912,1.8908,1.8913,1.8915,1.8907,1.89,1.89,1.8901,1.8898,1.89,1.891,1.8904,1.8866,1.886,1.8855,1.8851,1.891,1.891,1.8945,1.8946,1.8946]}]]